Weather History for KMCO - October, 2012

Change the Weather History Date:

Saturday, October 6, 2012

  Actual Average Record
Temperature  
Mean Temperature 81 °F 78 °F  
Max Temperature 91 °F 87 °F 96 °F (1919)
Min Temperature 71 °F 69 °F 57 °F (1921)
Degree Days  
Heating Degree Days 0 0  
Month to date heating degree days 0 0  
Since 1 July heating degree days 0 0  
Cooling Degree Days 16 13  
Month to date cooling degree days 99 81  
Year to date cooling degree days 3189 2957  
Growing Degree Days 32 (Base 50)    
Moisture  
Dew Point 73 °F    
Average Humidity 78    
Maximum Humidity 100    
Minimum Humidity 56    
Precipitation  
Precipitation T in 0.13 in 3.48 in (1915)
Month to date precipitation 1.52 0.88  
Year to date precipitation 38.88 43.55  
Sea Level Pressure  
Sea Level Pressure 29.95 in    
Wind  
Wind Speed 4 mph (NNE)    
Max Wind Speed 25 mph    
Max Gust Speed 32 mph    
Visibility 9 miles    
Events Rain , Thunderstorm    
T = Trace of Precipitation, MM = Missing Value Source: NWS Daily Summary

Daily Weather History Graph

Daily Weather History Graph

Search for Another Location

Airport or City:

Trip Planner

Search our weather history database for the weather conditions in past years. The results will help you decide how hot, cold, wet, or windy it might be!

Date:

Astronomy

Oct. 06, 2012 Rise Set
Actual Time 7:21 AM EDT 7:04 PM EDT
Civil Twilight 6:57 AM EDT 7:28 PM EDT
Nautical Twilight 6:30 AM EDT 7:55 PM EDT
Astronomical Twilight 6:02 AM EDT 8:22 PM EDT
Moon 11:40 PM EDT (10/6) 12:52 PM EDT (10/6)
Length of Visible Light 12h 30m
Length of Day
11h 43m
Waning Gibbous, 65% of the Moon is Illuminated
Oct 6
Waning Gibbous
Oct 8
Last Quarter
Oct 15
New
Oct 21
First Quarter
Oct 29
Full

Hourly Weather History & Observations

Time (EDT) Temp. Heat Index Dew Point Humidity Pressure Visibility Wind Dir Wind Speed Gust Speed Precip Events Conditions
12:53 AM 75.9 °F - 75.0 °F 97% 30.00 in 10.0 mi Calm Calm - N/A   Mostly Cloudy
1:53 AM 75.0 °F - 75.0 °F 100% 29.99 in 10.0 mi Calm Calm - N/A   Mostly Cloudy
2:53 AM 75.0 °F - 75.0 °F 100% 29.96 in 10.0 mi West 4.6 mph - N/A   Mostly Cloudy
3:24 AM 75.2 °F - 75.2 °F 100% 29.96 in 10.0 mi NNE 5.8 mph - N/A   Mostly Cloudy
3:53 AM 75.9 °F - 75.0 °F 97% 29.95 in 10.0 mi Calm Calm - N/A   Mostly Cloudy
4:30 AM 75.2 °F - 75.2 °F 100% 29.95 in 10.0 mi NNE 6.9 mph - N/A   Mostly Cloudy
4:53 AM 75.9 °F - 75.9 °F 100% 29.95 in 10.0 mi NNE 4.6 mph - N/A   Overcast
5:18 AM 75.2 °F - 75.2 °F 100% 29.96 in 10.0 mi NNE 6.9 mph - N/A   Mostly Cloudy
5:44 AM 75.2 °F - 75.2 °F 100% 29.97 in 10.0 mi NE 3.5 mph - N/A   Mostly Cloudy
5:53 AM 75.9 °F - 75.0 °F 97% 29.96 in 10.0 mi Calm Calm - N/A   Mostly Cloudy
6:41 AM 75.2 °F - 73.4 °F 94% 29.96 in 1.8 mi Calm Calm - N/A   Partly Cloudy
6:44 AM 73.4 °F - 73.4 °F 100% 29.96 in 8.0 mi Calm Calm - N/A   Scattered Clouds
6:53 AM 73.9 °F - 73.9 °F 100% 29.96 in 8.0 mi Calm Calm - N/A   Mostly Cloudy
7:26 AM 73.4 °F - 73.4 °F 100% 29.96 in 1.5 mi Calm Calm - N/A   Mostly Cloudy
7:29 AM 73.4 °F - 73.4 °F 100% 29.96 in 0.8 mi Calm Calm - N/A   Mostly Cloudy
7:32 AM 73.4 °F - 73.4 °F 100% 29.96 in 1.5 mi Calm Calm - N/A   Mostly Cloudy
7:49 AM 75.2 °F - 75.2 °F 100% 29.96 in 9.0 mi Calm Calm - N/A   Mostly Cloudy
7:53 AM 75.0 °F - 75.0 °F 100% 29.96 in 10.0 mi Calm Calm - N/A   Mostly Cloudy
8:53 AM 77.0 °F - 77.0 °F 100% 29.97 in 10.0 mi Calm Calm - N/A   Mostly Cloudy
9:53 AM 81.0 °F 87.3 °F 75.9 °F 85% 29.98 in 10.0 mi Calm Calm - N/A   Mostly Cloudy
10:53 AM 82.9 °F 90.2 °F 75.0 °F 77% 29.98 in 10.0 mi NNW 3.5 mph - N/A   Mostly Cloudy
11:53 AM 84.9 °F 91.4 °F 73.0 °F 67% 29.98 in 10.0 mi Variable 3.5 mph - N/A   Mostly Cloudy
12:53 PM 86.0 °F 92.2 °F 72.0 °F 63% 29.96 in 10.0 mi Calm Calm - N/A   Mostly Cloudy
1:53 PM 88.0 °F 93.8 °F 71.1 °F 57% 29.93 in 10.0 mi North 4.6 mph - N/A   Mostly Cloudy
2:53 PM 89.1 °F 96.0 °F 72.0 °F 57% 29.89 in 10.0 mi NNW 8.1 mph - N/A   Mostly Cloudy
3:53 PM 88.0 °F 95.6 °F 73.0 °F 61% 29.88 in 10.0 mi North 9.2 mph - N/A   Overcast
4:53 PM 84.0 °F 89.0 °F 71.1 °F 65% 29.89 in 10.0 mi NE 17.3 mph - N/A   Mostly Cloudy
5:53 PM 82.9 °F 88.8 °F 73.0 °F 72% 29.91 in 10.0 mi NE 17.3 mph - N/A   Mostly Cloudy
6:28 PM 73.4 °F - 69.8 °F 88% 29.91 in 10.0 mi NE 13.8 mph - 0.00 in Rain , Thunderstorm Light Thunderstorms and Rain
6:53 PM 73.0 °F - 66.9 °F 81% 29.92 in 10.0 mi ENE 12.7 mph - 0.00 in Thunderstorm Thunderstorm
7:43 PM 73.4 °F - 66.2 °F 78% 29.95 in 10.0 mi SE 4.6 mph - N/A   Mostly Cloudy
7:53 PM 73.0 °F - 66.9 °F 81% 29.95 in 10.0 mi Calm Calm - N/A   Mostly Cloudy
8:53 PM 73.0 °F - 68.0 °F 84% 29.95 in 10.0 mi ENE 3.5 mph - N/A   Mostly Cloudy
9:53 PM 73.9 °F - 70.0 °F 87% 29.96 in 10.0 mi NW 3.5 mph - N/A   Mostly Cloudy
10:53 PM 72.0 °F - 70.0 °F 93% 29.97 in 10.0 mi Calm Calm - N/A   Mostly Cloudy
11:15 PM 73.4 °F - 69.8 °F 88% 29.97 in 10.0 mi Calm Calm - N/A   Mostly Cloudy
11:53 PM 73.0 °F - 70.0 °F 90% 29.96 in 10.0 mi Calm Calm - N/A   Mostly Cloudy